• In Deutschland
  • Länderverzeichnis
  • Für 7 Tage
  • Wassertemperatur
  • Satellitenkarten
  • Wetterkarte
  • Widgets
  • user-avatar
    Anmelden

    Stündliche Wetter Molepolole

    Heute, 18 Juni, Montag

    Zeit Temperatur Niederschläge Wind Luftdruck Luftfeuchtigkeit
    00:00 +13°C° 0 mm 2 m/S 667 mmHg 62%
    01:00 +12°C° 0 mm 2 m/S 667 mmHg 68%
    02:00 +11°C° 0 mm 1 m/S 667 mmHg 88%
    03:00 +11°C° 0 mm 1 m/S 667 mmHg 88%
    04:00 +10°C° 0 mm 1 m/S 667 mmHg 88%
    05:00 +10°C° 0 mm 1 m/S 666 mmHg 88%
    06:00 +11°C° 0 mm 1 m/S 667 mmHg 85%
    07:00 +11°C° 0 mm 1 m/S 667 mmHg 82%
    08:00 +12°C° 0 mm 1 m/S 667 mmHg 74%
    09:00 +15°C° 0 mm 2 m/S 668 mmHg 62%
    10:00 +18°C° 0 mm 2 m/S 668 mmHg 50%
    11:00 +20°C° 0 mm 2 m/S 669 mmHg 37%
    12:00 +23°C° 0 mm 2 m/S 669 mmHg 32%
    13:00 +24°C° 0 mm 2 m/S 668 mmHg 26%
    14:00 +25°C° 0 mm 1 m/S 668 mmHg 23%
    15:00 +25°C° 0 mm 1 m/S 668 mmHg 23%
    16:00 +24°C° 0 mm 1 m/S 667 mmHg 23%
    17:00 +23°C° 0 mm 1 m/S 667 mmHg 24%
    18:00 +21°C° 0 mm 1 m/S 666 mmHg 26%
    19:00 +20°C° 0 mm 1 m/S 666 mmHg 29%
    20:00 +18°C° 0 mm 1 m/S 666 mmHg 31%
    21:00 +16°C° 0 mm 1 m/S 666 mmHg 33%
    22:00 +15°C° 0 mm 1 m/S 666 mmHg 34%
    23:00 +15°C° 0 mm 1 m/S 666 mmHg 35%

    Morgen, 19 Juni, Dienstag

    Zeit Temperatur Niederschläge Wind Luftdruck Luftfeuchtigkeit
    00:00 +14°C° 0 mm 1 m/S 666 mmHg 36%
    01:00 +14°C° 0 mm 1 m/S 666 mmHg 37%
    02:00 +13°C° 0 mm 1 m/S 665 mmHg 37%
    03:00 +13°C° 0 mm 1 m/S 665 mmHg 38%
    04:00 +13°C° 0 mm 1 m/S 665 mmHg 39%
    05:00 +12°C° 0 mm 1 m/S 665 mmHg 39%
    06:00 +13°C° 0 mm 1 m/S 665 mmHg 38%
    07:00 +13°C° 0 mm 1 m/S 666 mmHg 37%
    08:00 +14°C° 0 mm 1 m/S 666 mmHg 36%
    09:00 +18°C° 0 mm 1 m/S 667 mmHg 30%
    10:00 +20°C° 0 mm 2 m/S 668 mmHg 24%
    11:00 +24°C° 0 mm 2 m/S 669 mmHg 18%
    12:00 +25°C° 0 mm 2 m/S 668 mmHg 16%
    13:00 +26°C° 0 mm 2 m/S 668 mmHg 14%
    14:00 +27°C° 0 mm 2 m/S 668 mmHg 12%
    15:00 +26°C° 0 mm 2 m/S 667 mmHg 13%
    16:00 +26°C° 0 mm 1 m/S 667 mmHg 15%
    17:00 +25°C° 0 mm 1 m/S 666 mmHg 16%
    18:00 +23°C° 0 mm 1 m/S 666 mmHg 18%
    19:00 +19°C° 0 mm 0 m/S 666 mmHg 19%
    20:00 +17°C° 0 mm 0 m/S 666 mmHg 21%
    21:00 +16°C° 0 mm 0 m/S 666 mmHg 21%
    22:00 +15°C° 0 mm 0 m/S 666 mmHg 22%
    23:00 +15°C° 0 mm 0 m/S 666 mmHg 22%

    übermorgen, 20 Juni, Mittwoch

    Zeit Temperatur Niederschläge Wind Luftdruck Luftfeuchtigkeit
    00:00 +16°C° 0 mm 1 m/S 666 mmHg 23%
    01:00 +15°C° 0 mm 1 m/S 666 mmHg 23%
    02:00 +15°C° 0 mm 1 m/S 666 mmHg 23%
    03:00 +14°C° 0 mm 1 m/S 666 mmHg 24%
    04:00 +13°C° 0 mm 1 m/S 666 mmHg 25%
    05:00 +12°C° 0 mm 0 m/S 666 mmHg 26%
    06:00 +12°C° 0 mm 0 m/S 666 mmHg 26%
    07:00 +13°C° 0 mm 0 m/S 667 mmHg 26%
    08:00 +14°C° 0 mm 0 m/S 667 mmHg 26%
    09:00 +19°C° 0 mm 1 m/S 668 mmHg 21%
    10:00 +21°C° 0 mm 2 m/S 669 mmHg 17%
    11:00 +25°C° 0 mm 2 m/S 670 mmHg 13%
    12:00 +26°C° 0 mm 2 m/S 670 mmHg 12%
    13:00 +27°C° 0 mm 3 m/S 669 mmHg 11%
    14:00 +28°C° 0 mm 3 m/S 669 mmHg 10%
    15:00 +27°C° 0 mm 2 m/S 669 mmHg 11%
    16:00 +26°C° 0 mm 2 m/S 668 mmHg 12%
    17:00 +25°C° 0 mm 2 m/S 668 mmHg 13%
    18:00 +23°C° 0 mm 2 m/S 668 mmHg 14%
    19:00 +20°C° 0 mm 2 m/S 668 mmHg 16%
    20:00 +18°C° 0 mm 2 m/S 668 mmHg 17%
    21:00 +17°C° 0 mm 2 m/S 668 mmHg 17%
    22:00 +18°C° 0 mm 1 m/S 668 mmHg 18%
    23:00 +16°C° 0 mm 1 m/S 668 mmHg 18%

    21 Juni, Donnerstag

    Zeit Temperatur Niederschläge Wind Luftdruck Luftfeuchtigkeit
    00:00 +16°C° 0 mm 2 m/S 668 mmHg 19%
    01:00 +15°C° 0 mm 2 m/S 668 mmHg 20%
    02:00 +15°C° 0 mm 2 m/S 668 mmHg 21%
    03:00 +14°C° 0 mm 2 m/S 668 mmHg 24%
    04:00 +13°C° 0 mm 2 m/S 668 mmHg 28%
    05:00 +12°C° 0 mm 2 m/S 668 mmHg 31%
    06:00 +12°C° 0 mm 2 m/S 669 mmHg 36%
    07:00 +12°C° 0 mm 2 m/S 669 mmHg 41%
    08:00 +13°C° 0 mm 2 m/S 670 mmHg 46%
    09:00 +14°C° 0 mm 3 m/S 671 mmHg 45%
    10:00 +18°C° 0 mm 4 m/S 671 mmHg 44%
    11:00 +20°C° 0 mm 4 m/S 672 mmHg 43%
    12:00 +22°C° 0 mm 4 m/S 671 mmHg 38%
    13:00 +23°C° 0 mm 4 m/S 671 mmHg 33%
    14:00 +25°C° 0 mm 3 m/S 670 mmHg 28%
    15:00 +25°C° 0 mm 3 m/S 670 mmHg 28%
    16:00 +24°C° 0 mm 2 m/S 670 mmHg 29%
    17:00 +24°C° 0 mm 2 m/S 669 mmHg 29%
    18:00 +21°C° 0 mm 2 m/S 669 mmHg 35%
    19:00 +19°C° 0 mm 2 m/S 669 mmHg 40%
    20:00 +17°C° 0 mm 2 m/S 670 mmHg 45%
    21:00 +17°C° 0 mm 2 m/S 670 mmHg 49%
    22:00 +16°C° 0 mm 2 m/S 670 mmHg 53%
    23:00 +15°C° 0 mm 2 m/S 670 mmHg 57%

    22 Juni, Freitag

    Zeit Temperatur Niederschläge Wind Luftdruck Luftfeuchtigkeit
    00:00 +15°C° 0 mm 2 m/S 669 mmHg 60%
    01:00 +14°C° 0 mm 1 m/S 669 mmHg 63%
    02:00 +13°C° 0 mm 1 m/S 669 mmHg 66%
    03:00 +13°C° 0 mm 1 m/S 669 mmHg 67%
    04:00 +13°C° 0 mm 1 m/S 669 mmHg 69%
    05:00 +12°C° 0 mm 1 m/S 668 mmHg 71%
    06:00 +13°C° 0 mm 1 m/S 669 mmHg 70%
    07:00 +13°C° 0 mm 1 m/S 669 mmHg 68%
    08:00 +13°C° 0 mm 1 m/S 670 mmHg 67%
    09:00 +16°C° 0 mm 2 m/S 670 mmHg 57%
    10:00 +19°C° 0 mm 2 m/S 671 mmHg 48%
    11:00 +22°C° 0 mm 3 m/S 671 mmHg 38%
    12:00 +24°C° 0 mm 3 m/S 671 mmHg 33%
    13:00 +25°C° 0 mm 3 m/S 670 mmHg 27%
    14:00 +26°C° 0 mm 3 m/S 670 mmHg 21%
    15:00 +25°C° 0 mm 3 m/S 670 mmHg 22%
    16:00 +24°C° 0 mm 2 m/S 669 mmHg 23%
    17:00 +24°C° 0 mm 2 m/S 669 mmHg 23%
    18:00 +21°C° 0 mm 2 m/S 669 mmHg 27%
    19:00 +19°C° 0 mm 2 m/S 669 mmHg 30%
    20:00 +18°C° 0 mm 1 m/S 669 mmHg 34%
    21:00 +18°C° 0 mm 1 m/S 669 mmHg 35%
    22:00 +16°C° 0 mm 1 m/S 669 mmHg 37%
    23:00 +15°C° 0 mm 0 m/S 669 mmHg 39%

    23 Juni, Samstag

    Zeit Temperatur Niederschläge Wind Luftdruck Luftfeuchtigkeit
    00:00 +14°C° 0 mm 0 m/S 669 mmHg 40%
    01:00 +14°C° 0 mm 0 m/S 668 mmHg 42%
    02:00 +13°C° 0 mm 0 m/S 668 mmHg 43%
    03:00 +14°C° 0 mm 1 m/S 668 mmHg 45%
    04:00 +13°C° 0 mm 1 m/S 668 mmHg 46%
    05:00 +13°C° 0 mm 1 m/S 668 mmHg 47%
    06:00 +13°C° 0 mm 1 m/S 669 mmHg 47%
    07:00 +13°C° 0 mm 2 m/S 669 mmHg 48%
    08:00 +13°C° 0 mm 2 m/S 670 mmHg 48%
    09:00 +16°C° 0 mm 3 m/S 670 mmHg 44%
    10:00 +18°C° 0 mm 3 m/S 671 mmHg 41%
    11:00 +21°C° 0 mm 4 m/S 672 mmHg 37%
    12:00 +22°C° 0 mm 4 m/S 671 mmHg 34%
    13:00 +24°C° 0 mm 3 m/S 670 mmHg 31%
    14:00 +24°C° 0 mm 3 m/S 670 mmHg 27%
    15:00 +24°C° 0 mm 2 m/S 669 mmHg 27%
    16:00 +23°C° 0 mm 2 m/S 669 mmHg 27%
    17:00 +23°C° 0 mm 2 m/S 669 mmHg 27%
    18:00 +20°C° 0 mm 2 m/S 669 mmHg 31%
    19:00 +18°C° 0 mm 2 m/S 669 mmHg 35%
    20:00 +17°C° 0 mm 2 m/S 669 mmHg 39%
    21:00 +16°C° 0 mm 2 m/S 669 mmHg 42%
    22:00 +15°C° 0 mm 2 m/S 668 mmHg 45%
    23:00 +15°C° 0 mm 2 m/S 668 mmHg 48%
    Mehr zeigen